STARLINK-36072, 66856

Orbit data source: Space-Track

STARLINK-36072, 66856 is a payload satellite owned by SpaceX/Seattle (US) in LEO that was launched on Tue, 02 Dec 2025 UTC via an FALCON 9 launch vehicle from the Air Force Eastern Test Range (AFETR). Payload-class satellites include a variety of spacecraft equipped with specific instruments for various scientific and technological missions. These include communications satellites like Starlink; space stations such as the ISS; scientific satellites like the Hubble; Earth observation satellites from companies like Planet Labs, Umbra, and HawkEye 360; GPS; miniature CubeSats for education and research; and military/defense satellites.

Loading next visibility...
Identifier
66856, 2025-281J
Orbit
LEO
Country
Flag of USUS
Related business
Manufacturer
SpaceX/Seattle
Mission
Operational Commercial Communications
Bus & Motor
STARLINK V2MO, Unknown motor
Mass
575 kg wet, ~530 kg dry
Launch date (UTC)
2025-12-02 (7 months ago)
Launch vehicle
FALCON 9
Launch site
Air Force Eastern Test Range (AFETR)
Object type
Payload
Rocket body
Debris
Shape & HBR
Box + 2 Pan, 17.7 m
Radar Cross Section
36.964 m², Large (>1 m²)

Expand to show TLE details & history
Last TLE update: 1 day ago

TLE from 1 day ago
0 STARLINK-36072
1 66856U 25281J   26170.57867050  .00007877  00000-0  29536-3 0  9990
2 66856  43.0014 128.4469 0000748 271.6849  88.3917 15.27592342 31768
Epoch: 2026-06-19T13:53Z
TLE epoch observation values (Epoch: 2026-06-19T13:53:17.131Z)
Latitude
-0°
Longitude
12.31989°
Altitude
482.773 km
Speed
7.626 km/s
True Right ascension
08h 33m 47s
True Declination
0° 00' 00"
Sunlit
Object was in daylight at epoch
Visualization orbit readout
Latitude
Unknown
Longitude
Unknown
Altitude
Unknown
Speed
Unknown
Apparent Right ascension
Unknown
Apparent Declination
Unknown
Sunlit
N/A
Visualization observer readout
Local Sidereal Time
07:14:03
Azimuth
Unknown
Elevation
Unknown
Doppler factor
Unknown
Orbital elements
Apogee altitude
485.47 km
Perigee altitude
484.444 km
Semi-major axis
6,863.094 km
Eccentricity
0.00007
Inclination
43.0014°
RAAN
128.4469°
Arg. of periapsis
271.6849°
True anomaly
88.40027°
Mean anomaly
88.3917°
Eccentric anomaly
88.39598°
Mean motion
3.81736 °/min
Orbital period
94.31 mins
BSTAR
0.00029536
Loading maneuver chart data...
Computing Atmospheric mass density...
Loading historical data...
Loading historical data...
Loading historical data...
Loading historical data...
Loading historical data...
Loading historical data...
Loading historical data...

Documentation

Showing up to 5 results
|